Home > Weather > Bern > Past weeks

Flag for Switzerland Weather for the Past 2 Weeks in Bern, Bern, Switzerland

Now
55 °F

Passing clouds.


Feels Like: 54 °F
Forecast: 31 / 57 °F
Wind: 6 mph from North

Location: Bern / Belp

Current Time: Apr 29, 2016 at 3:03:36 PM

Latest Report: Apr 29, 2016 at 2:20 PM


Visibility: N/A

Pressure: 30.04 "Hg (28.19 "Hg at 533m altitude)

Humidity: 51%

Dew Point: 37 °F

Location of BernLocation

Historic Weather in Bern — Graph

°F

Bern Temperature Yesterday

Maximum temperature yesterday: 54 °F (at 3:20 PM)
Minimum temperature yesterday: 28 °F (at 6:50 AM)
Average temperature yesterday: 42 °F

High & Low Weather Summary for the Past Weeks

 TemperatureHumidityPressure
High72 °F (Apr 21, 3:20 PM)100% (Apr 15, 3:20 AM)30.27 "Hg (Apr 15, 3:20 AM)
Low28 °F (Apr 28, 6:50 AM)32% (Apr 28, 4:20 PM)29.62 "Hg (Apr 16, 8:20 PM)
Average47 °F81%29.96 "Hg
* Reported Apr 14 1:20 PM — Apr 29 1:50 PM, Bern, Weather by CustomWeather, © 2016

Note: Actual official high and low records may vary slightly from our data, if they occured in-between our weather recording intervals... More about our weather records

Advertising

Bern Weather History for the Previous 24 Hours

Scroll right to see more
 ConditionsComfort  
Time TempWeatherWind HumidityBarometerVisibility
1:50 PM
Fri, Apr 29
55 °FScattered clouds.5 mph47%30.04 "HgN/A
1:20 PM52 °FScattered clouds.5 mph54%30.04 "HgN/A
12:50 PM54 °FScattered clouds.6 mph51%30.04 "HgN/A
12:20 PM52 °FScattered clouds.5 mph50%30.04 "HgN/A
11:50 AM52 °FScattered clouds.3 mph50%30.04 "HgN/A
11:20 AM50 °FScattered clouds.3 mph54%30.04 "HgN/A
10:50 AM48 °FSunny.1 mph62%30.07 "Hg10 mi
10:20 AM46 °FSunny.1 mph62%30.07 "Hg10 mi
9:50 AM45 °FSunny.1 mph66%30.07 "Hg10 mi
9:20 AM43 °FPassing clouds.3 mph71%30.07 "HgN/A
8:50 AM41 °FSunny.3 mph76%30.07 "Hg10 mi
8:20 AM37 °FSunny.2 mph93%30.07 "Hg10 mi
7:50 AM34 °FSunny.3 mph93%30.07 "Hg10 mi
7:20 AM30 °FSunny.2 mph100%30.07 "Hg10 mi
6:50 AM28 °FClear.3 mph100%30.07 "Hg10 mi
6:20 AM28 °FClear.2 mph100%30.04 "Hg10 mi
5:50 AM30 °FClear.No wind100%30.04 "Hg10 mi
5:20 AM28 °FClear.No wind100%30.04 "Hg10 mi
4:20 AM30 °FClear.1 mph100%30.04 "Hg10 mi
3:50 AM30 °FClear.3 mph100%30.04 "Hg10 mi
3:20 AM30 °FClear.2 mph100%30.04 "Hg10 mi
2:50 AM32 °FClear.3 mph100%30.04 "Hg10 mi
2:20 AM32 °FClear.2 mph100%30.04 "Hg10 mi
1:50 AM32 °FClear.2 mph100%30.04 "Hg10 mi
1:20 AM32 °FClear.2 mph100%30.04 "Hg10 mi
12:50 AM34 °FClear.3 mph93%30.04 "Hg10 mi
12:20 AM36 °FChilly.1 mph93%30.04 "HgN/A
11:50 PM
Thu, Apr 28
36 °FPassing clouds.3 mph93%30.01 "HgN/A
11:20 PM39 °FPassing clouds.1 mph87%30.01 "HgN/A
10:50 PM39 °FPassing clouds.2 mph87%30.01 "HgN/A
10:20 PM43 °FPartly cloudy.2 mph76%30.01 "HgN/A
9:50 PM46 °FPartly cloudy.3 mph57%30.01 "HgN/A
9:20 PM46 °FBroken clouds.3 mph53%30.01 "HgN/A
8:50 PM48 °FPartly sunny.5 mph54%29.98 "HgN/A
8:20 PM48 °FBroken clouds.3 mph50%29.98 "HgN/A
7:50 PM48 °FPartly sunny.7 mph50%29.98 "HgN/A
7:20 PM50 °FPartly sunny.5 mph47%29.98 "HgN/A
6:50 PM52 °FPartly sunny.9 mph41%29.95 "HgN/A
6:20 PM54 °FPartly sunny.7 mph38%29.95 "HgN/A
5:50 PM54 °FPartly sunny.7 mph41%29.95 "HgN/A
5:20 PM52 °FPartly sunny.8 mph32%29.95 "HgN/A
4:50 PM52 °FPartly sunny.8 mph35%29.95 "HgN/A
4:20 PM52 °FPartly sunny.5 mph32%29.95 "HgN/A
3:50 PM52 °FPartly sunny.5 mph38%29.95 "HgN/A
3:20 PM54 °FScattered clouds.9 mph38%29.95 "HgN/A
Weather by CustomWeather, © 2016

See weather overviewHow to use our weather pages